Regional Weather Roundup
Issued by NWS

Home | Current Version | Previous Version | Text Only | Print | Product List | Glossary On
Versions: 1 2 3 4 5 6 7 8 9 10 11 12 13 14 15 16 17 18 19 20 21 22 23 24 25 26 27 28 29 30 31 32 33 34 35 36 37 38 39 40 41 42 43 44 45 46 47 48 49 50
000
ASUS45 KCYS 071510
RWRWY

WYOMING REGIONAL WEATHER ROUNDUP
NATIONAL WEATHER SERVICE CHEYENNE WY
800 AM MST SUN FEB 07 2016

NOTE:  "FAIR" INDICATES FEW OR NO CLOUDS BELOW 12,000 FEET
WITH NO SIGNIFICANT WEATHER AND/OR OBSTRUCTIONS TO VISIBILITY.

WYZ001-071600-
YELLOWSTONE NATIONAL PARK

CITY           SKY/WX    TMP DP  RH WIND       PRES   REMARKS
LK YELLOWSTONE   N/A      1  -4  79 CALM      30.41R
W YELLOWSTONE  NOT AVBL

$$
WYZ002>013-054>058-071-098>099-071600-
NORTHERN WYOMING

CITY           SKY/WX    TMP DP  RH WIND       PRES   REMARKS
JACKSON        PTCLDY    25  19  80 CALM      30.43R
CODY           FAIR      21  10  63 NW3       30.34R
GREYBULL       FAIR      35  11  36 N25G33    30.33R WCI  23
WORLAND        MOCLDY    22  14  71 SW9       30.35R WCI  12
SHERIDAN       MOCLDY    32  14  47 NW21      30.32R WCI  20
BUFFALO        CLOUDY    31  12  45 NW32G46   30.28R WCI  16
GILLETTE       CLOUDY    29  12  49 NW25G33   30.25R WCI  14
HULETT         FAIR      30  12  47 NW16G25   30.22R WCI  19
NEWCASTLE      FAIR      30  10  43 NW16G28   30.21R WCI  19

$$
WYZ014>020-022>026-101>103-071600-
CENTRAL WYOMING

CITY           SKY/WX    TMP DP  RH WIND       PRES   REMARKS
BIG PINEY      FAIR      25  17  72 N18       30.37R WCI  11
PINEDALE       FAIR      19  14  79 NW9       30.36S WCI   9
DUBOIS         FAIR      27  12  54 NW23G36   30.29R WCI  12
LANDER         FAIR      22  11  62 VRB5      30.32R WCI  16
RIVERTON       FAIR      23  11  60 E9        30.33R WCI  13
CASPER         CLOUDY    13   8  81 CALM      30.31R
DOUGLAS        CLOUDY    27  21  78 NW17        N/A  WCI  14

$$
WYZ021-027>030-104>119-071600-
SOUTHERN WYOMING

CITY           SKY/WX    TMP DP  RH WIND       PRES   REMARKS
EVANSTON       FAIR      21  12  68 SW13      30.46R WCI   9
FORT BRIDGER   SUNNY     27  18  69 W25       30.46S WCI  11
ROCK SPRINGS   FAIR      25  17  72 W26       30.39S WCI   9
DIXON          CLOUDY     8   3  83 NE5       30.44R WCI  -1
RAWLINS        FAIR      21  14  74 W18       30.32R WCI   6
SARATOGA       FAIR      23  19  86 W24G30    30.31R WCI   7
LARAMIE        FAIR      24  16  71 W21       30.21R WCI   9
CHEYENNE       MOCLDY    23  17  78 N14       30.22R WCI  11
TORRINGTON     CLOUDY    30  23  75 NW16G26   30.27R WCI  19
PINE BLUFFS    FLURRIES  27  23  86 N22G28    30.26R WCI  12

$$



USA.gov is the U.S. government's official web portal to all federal, state and local government web resources and services.